TimePST,TemperatureF,Dew PointF,Humidity,Sea Level PressureIn,VisibilityMPH,Wind Direction,Wind SpeedMPH,Gust SpeedMPH,PrecipitationIn,Events,Conditions,WindDirDegrees,DateUTC
12:56 AM,18.0,12.9,81,30.34,10.0,Calm,Calm,-,N/A,,Clear,0,2012-11-24 08:56:00
1:56 AM,23.0,16.0,74,30.31,10.0,Calm,Calm,-,N/A,,Clear,0,2012-11-24 09:56:00
2:56 AM,19.9,14.0,78,30.31,10.0,Calm,Calm,-,N/A,,Clear,0,2012-11-24 10:56:00
3:56 AM,15.1,10.9,84,30.32,10.0,Calm,Calm,-,N/A,,Clear,0,2012-11-24 11:56:00
4:56 AM,16.0,10.9,81,30.33,10.0,Calm,Calm,-,N/A,,Clear,0,2012-11-24 12:56:00
5:56 AM,18.0,12.9,81,30.36,10.0,Calm,Calm,-,N/A,,Clear,0,2012-11-24 13:56:00
6:56 AM,10.9,8.1,88,30.39,10.0,Calm,Calm,-,N/A,,Clear,0,2012-11-24 14:56:00
7:56 AM,24.1,16.0,71,30.36,10.0,Calm,Calm,-,N/A,,Clear,0,2012-11-24 15:56:00
8:56 AM,33.1,21.0,61,30.34,10.0,Calm,Calm,-,N/A,,Clear,0,2012-11-24 16:56:00
9:56 AM,41.0,23.0,49,30.31,10.0,Calm,Calm,-,N/A,,Clear,0,2012-11-24 17:56:00
10:56 AM,48.0,24.1,39,30.28,10.0,Calm,Calm,-,N/A,,Clear,0,2012-11-24 18:56:00
11:56 AM,52.0,24.1,34,30.23,10.0,NNE,3.5,-,N/A,,Clear,20,2012-11-24 19:56:00
12:56 PM,57.0,25.0,29,30.21,10.0,Calm,Calm,-,N/A,,Clear,0,2012-11-24 20:56:00
1:56 PM,60.1,23.0,24,30.16,10.0,Variable,3.5,-,N/A,,Clear,0,2012-11-24 21:56:00
2:56 PM,60.1,21.9,23,30.14,10.0,West,4.6,-,N/A,,Clear,270,2012-11-24 22:56:00
3:56 PM,57.0,21.0,25,30.15,10.0,WNW,3.5,-,N/A,,Clear,300,2012-11-24 23:56:00
4:56 PM,41.0,19.9,43,30.17,10.0,Calm,Calm,-,N/A,,Clear,0,2012-11-25 00:56:00
5:56 PM,34.0,18.0,52,30.19,10.0,Calm,Calm,-,N/A,,Clear,0,2012-11-25 01:56:00
6:56 PM,28.0,16.0,61,30.20,10.0,SE,8.1,-,N/A,,Clear,140,2012-11-25 02:56:00
7:56 PM,30.9,17.1,57,30.15,10.0,SSW,4.6,-,0.01,,Clear,210,2012-11-25 03:56:00
8:56 PM,30.0,16.0,56,30.12,10.0,ESE,4.6,-,N/A,,Clear,110,2012-11-25 04:56:00
9:56 PM,23.0,14.0,68,30.13,10.0,Calm,Calm,-,N/A,,Clear,0,2012-11-25 05:56:00
10:56 PM,23.0,14.0,68,30.10,10.0,South,4.6,-,N/A,,Clear,180,2012-11-25 06:56:00
11:56 PM,21.9,12.9,68,30.09,10.0,Calm,Calm,-,N/A,,Clear,0,2012-11-25 07:56:00